Погода в Льгове

Россия / Орловская область     53°16′57″N   35°25′09″E
темп.,
°C
ветер,
м/с
пор.,
м/с
влажн.,
%
обл.,
%
осадки,
мм/ч
давл.,
гПа
погр.,
м
10 мая, пн
пн1000:00+3сз311825 0.0 1023199
03:00+2ссз39810 0.0 1025157
06:00+2ссз38780 0.0 1026169
09:00+9с47560 0.0 1026607
12:00+12ссв68430 0.0 10261732
15:00+13ссв79437 0.0 10251736
18:00+12ссв595513 0.0 10251190
21:00+7с4127398 0.0 1026239
11 мая, вт
вт1100:00+6ссв5147272 0.0 1026369
03:00+5ссв4127737 0.0 1025303
06:00+6ссв5148316 0.0 1025351
09:00+11ссв711735 0.0 1024494
12:00+16св710685 0.0 1022894
15:00+19св7106620 0.0 10211308
18:00+14вюв41185100 1.1 1023626
21:00+10вюв39935 1.2 1025358
12 мая, ср
ср1200:00+6в38920 0.0 1026160
03:00+5в34940 0.0 102674
06:00+6всв259399 0.0 1026140
09:00+11всв4574100 0.0 1024566
12:00+13всв6564100 0.1 10221263
15:00+9св3486100 1.5 1020392
18:00+9вюв4788100 0.5 1019604
21:00+7в41195100 0.5 1018278
13 мая, чт
чт1300:00+9вюв7129333 0.4 1017650
03:00+8вюв5129546 0.8 1017481
06:00+9юв51195100 0.9 1018627
09:00+12юв5884100 1.6 1018770
12:00+16ююв58633 0.3 10171519
15:00+17ююв585749 0.4 10171872
18:00+16юв477381 0.0 1016624
21:00+12юв3687100 0.0 1017104
14 мая, пт
пт1400:00+12вюв3786100 0.0 1017132
03:00+11вюв41090100 0.0 1016198
06:00+12вюв51388100 0.0 1015301
09:00+17вюв71379100 0.0 1013744
12:00+19юв7127691 0.0 1012973
15:00+19ююв91377100 1.8 1011883
18:00+20ююв4117799 0.0 10111136
21:00+15ю37925 2.8 1011138